FW8369 Weather Reports


Display with metric or nautical units.
time (UTC)temp
F
wind
direction
speed
MPH
gust
MPH
rain 1hr
in
rain 24hr
in
rain mn
in
humidity
%
barometer
mb
20260902160904 82 259 0.0 0.0 0.00 0.00 0.00 79 999.8
20260902160404 82 288 0.0 1.0 0.00 0.00 0.00 79 999.8
20260902155904 82 292 0.0 2.0 0.00 0.00 0.00 79 999.8
20260902155404 82 284 0.0 2.0 0.00 0.00 0.00 78 999.8
20260902154904 83 253 1.0 2.0 0.00 0.00 0.00 78 1000.0
20260902154404 83 307 0.0 1.0 0.00 0.01 0.00 79 999.9
20260902152904 83 267 0.0 2.0 0.00 0.01 0.00 78 1000.0
20260902152403 83 45 0.0 2.0 0.00 0.01 0.00 79 999.9
20260902151904 83 20 0.0 2.0 0.00 0.02 0.00 78 1000.0
20260902151404 83 236 0.0 2.0 0.00 0.03 0.00 78 999.9
20260902150907 83 310 0.0 0.0 0.00 0.03 0.00 79 999.9
20260902150404 83 334 0.0 3.0 0.00 0.03 0.00 79 999.9
20260902145905 83 271 0.0 3.0 0.00 0.03 0.00 78 1000.0
20260902144904 83 62 0.0 2.0 0.00 0.03 0.00 79 1000.2
20260902144404 83 66 1.0 2.0 0.00 0.03 0.00 78 1000.1
20260902143904 83 326 0.0 1.0 0.00 0.04 0.00 79 1000.2
20260902143405 83 318 0.0 2.0 0.00 0.04 0.00 79 1000.1
20260902142904 83 292 0.0 1.0 0.00 0.05 0.00 79 1000.1
20260902142404 83 286 0.0 0.0 0.00 0.06 0.00 79 1000.0
20260902141903 83 328 0.0 3.0 0.00 0.07 0.00 79 1000.0
20260902141404 83 227 1.0 2.0 0.00 0.08 0.00 79 1000.0
20260902140904 83 341 0.0 2.0 0.00 0.09 0.00 79 999.9
20260902140404 83 318 0.0 1.0 0.00 0.10 0.00 79 999.9
20260902135903 83 273 0.0 1.0 0.00 0.11 0.00 79 999.9
20260902135404 83 329 1.0 3.0 0.00 0.13 0.00 79 999.9
20260902134904 83 213 1.0 3.0 0.00 0.15 0.00 79 999.8
20260902134404 83 55 1.0 3.0 0.00 0.17 0.00 79 999.8
20260902133903 83 248 0.0 2.0 0.00 0.20 0.00 79 999.8
20260902133404 83 243 0.0 3.0 0.00 0.24 0.00 79 999.8
20260902132403 83 237 1.0 5.0 0.00 0.35 0.00 80 999.8
20260902131904 83 11 1.0 12.0 0.00 0.38 0.00 80 999.8
20260902131404 83 358 0.0 1.0 0.00 0.39 0.00 80 999.7
20260902130404 83 50 1.0 3.0 0.00 0.41 0.00 80 999.7
20260902125904 83 28 2.0 6.0 0.00 0.42 0.00 80 999.6
20260902125404 83 50 2.0 3.0 0.00 0.42 0.00 80 999.5
20260902124904 84 327 0.0 3.0 0.00 0.42 0.00 80 999.4
20260902124404 84 40 2.0 3.0 0.00 0.42 0.00 80 999.4
20260902123904 84 308 2.0 6.0 0.00 0.42 0.00 80 999.3
20260902123404 84 33 2.0 6.0 0.00 0.42 0.00 79 999.2
20260902122904 84 13 0.0 3.0 0.00 0.42 0.00 79 999.3
20260902122404 84 352 1.0 3.0 0.00 0.42 0.00 79 999.4
20260902121904 84 62 2.0 3.0 0.00 0.42 0.00 79 999.4
20260902121404 84 67 2.0 5.0 0.00 0.42 0.00 79 999.4
20260902115904 85 314 2.0 3.0 0.00 0.42 0.00 79 999.2
20260902115404 85 238 1.0 3.0 0.00 0.42 0.00 78 999.2
20260902114904 85 267 0.0 1.0 0.00 0.42 0.00 79 999.2
20260902114403 85 298 0.0 2.0 0.00 0.42 0.00 79 999.2
20260902113404 85 282 0.0 2.0 0.00 0.42 0.00 79 999.0
20260902112903 85 263 2.0 5.0 0.00 0.42 0.00 79 999.0
20260902112404 84 325 1.0 5.0 0.00 0.42 0.00 80 998.8
20260902111903 85 48 2.0 6.0 0.00 0.42 0.00 79 998.8
20260902111403 85 22 2.0 6.0 0.00 0.42 0.00 80 998.8
20260902110904 85 279 1.0 5.0 0.00 0.42 0.00 80 998.7
20260902105404 85 41 0.0 2.0 0.00 0.51 0.00 80 998.6
20260902104904 85 60 1.0 3.0 0.00 0.53 0.00 79 998.6
20260902104403 85 283 0.0 0.0 0.00 0.55 0.00 79 998.5
20260902103904 85 229 1.0 2.0 0.00 0.55 0.00 79 998.4
20260902103404 85 337 0.0 1.0 0.00 0.55 0.00 79 998.5
20260902102904 85 325 0.0 2.0 0.00 0.55 0.00 79 998.4
20260902102404 85 301 0.0 1.0 0.00 0.55 0.00 80 998.3
20260902101904 85 343 1.0 3.0 0.00 0.55 0.00 80 998.4
20260902101404 86 315 2.0 3.0 0.00 0.55 0.00 79 998.3
20260902100904 86 8 0.0 3.0 0.00 0.55 0.00 79 998.2
20260902100404 86 18 0.0 2.0 0.00 0.55 0.00 79 998.2
20260902095904 86 299 0.0 1.0 0.00 0.55 0.00 79 998.1
20260902095404 86 40 1.0 5.0 0.00 0.55 0.00 79 998.1
20260902094904 86 32 1.0 3.0 0.00 0.55 0.00 79 998.1
20260902094404 86 266 0.0 1.0 0.00 0.55 0.00 79 998.0
20260902093403 86 319 0.0 2.0 0.00 0.55 0.00 79 998.0
20260902092904 86 244 0.0 2.0 0.00 0.55 0.00 80 997.9
20260902092404 86 1 0.0 1.0 0.00 0.55 0.00 79 997.8
20260902091904 87 75 2.0 3.0 0.00 0.55 0.00 78 997.8
20260902091403 87 58 1.0 3.0 0.00 0.55 0.00 78 997.7
20260902090404 87 278 0.0 1.0 0.00 0.55 0.00 78 997.6
20260902085903 87 316 1.0 2.0 0.00 0.55 0.00 78 997.6
20260902085403 87 1 1.0 2.0 0.00 0.55 0.00 78 997.6
20260902084903 88 352 0.0 5.0 0.00 0.55 0.00 78 997.6
20260902084404 88 354 1.0 3.0 0.00 0.55 0.00 77 997.5
20260902083404 87 269 0.0 2.0 0.00 0.55 0.00 79 997.6
20260902082904 87 256 1.0 3.0 0.00 0.55 0.00 78 997.6
20260902082404 87 260 2.0 3.0 0.00 0.55 0.00 78 997.6
20260902081903 87 263 0.0 5.0 0.00 0.55 0.00 78 997.5
20260902080904 88 250 1.0 5.0 0.00 0.55 0.00 77 997.5
20260902080404 88 251 2.0 3.0 0.00 0.55 0.00 77 997.5
20260902075404 88 259 1.0 6.0 0.00 0.55 0.00 75 997.4
20260902074904 90 263 0.0 1.0 0.00 0.55 0.00 74 997.4
20260902073904 89 266 0.0 1.0 0.00 0.55 0.00 76 997.4
20260902073404 89 253 1.0 3.0 0.00 0.55 0.00 76 997.4
20260902072904 89 272 1.0 5.0 0.00 0.55 0.00 76 997.4
20260902071404 89 32 1.0 3.0 0.00 0.55 0.00 76 997.4
20260902070404 90 311 0.0 3.0 0.00 0.55 0.00 74 997.5
20260902065404 91 258 0.0 1.0 0.00 0.55 0.00 74 997.5
20260902064904 90 261 0.0 3.0 0.00 0.55 0.00 74 997.6
20260902064404 90 222 1.0 3.0 0.00 0.55 0.00 75 997.7
20260902063904 90 249 1.0 3.0 0.00 0.55 0.00 75 997.7
20260902062404 89 281 0.0 3.0 0.00 0.55 0.00 76 997.7
20260902061905 89 317 0.0 1.0 0.00 0.55 0.00 76 997.7
20260902061404 89 287 1.0 3.0 0.00 0.55 0.00 77 997.7
20260902060904 89 2 0.0 3.0 0.00 0.55 0.00 76 997.7
20260902060404 89 29 1.0 3.0 0.00 0.55 0.00 75 997.8
20260902055904 89 268 0.0 2.0 0.00 0.55 0.00 76 997.8
20260902055404 89 38 1.0 2.0 0.00 0.55 0.00 76 997.8
20260902054904 91 338 0.0 2.0 0.00 0.55 0.00 74 997.9
20260902054405 90 331 0.0 1.0 0.00 0.55 0.00 75 997.9
20260902053907 89 57 0.0 3.0 0.00 0.55 0.00 77 998.0
20260902053404 89 249 0.0 3.0 0.00 0.55 0.00 77 998.0
20260902052904 88 2 0.0 1.0 0.00 0.55 0.00 77 998.0
20260902052404 88 38 0.0 2.0 0.00 0.55 0.00 77 998.1
20260902051904 88 36 0.0 3.0 0.00 0.55 0.00 78 998.1
20260902051404 87 23 1.0 3.0 0.00 0.55 0.00 78 998.1
20260902050904 87 281 0.0 2.0 0.00 0.55 0.00 79 998.2
20260902050404 86 275 0.0 3.0 0.00 0.56 0.00 80 998.2
20260902045903 86 357 1.0 5.0 0.00 0.56 0.00 80 998.3
20260902045404 86 63 1.0 5.0 0.00 0.56 0.00 80 998.4
20260902044904 86 32 1.0 5.0 0.00 0.57 0.00 79 998.4
20260902044404 86 84 0.0 3.0 0.00 0.57 0.00 81 998.4
20260902043904 85 2 1.0 3.0 0.00 0.58 0.00 80 998.5
20260902042904 85 58 1.0 3.0 0.00 0.59 0.00 81 998.6
20260902041404 85 270 0.0 1.0 0.00 0.63 0.00 81 998.9
20260902040904 85 298 1.0 3.0 0.00 0.64 0.00 80 998.9
20260902040404 86 268 0.0 1.0 0.00 0.68 0.00 80 999.0
20260902035404 86 341 0.0 2.0 0.00 0.74 0.00 80 999.1
20260902034904 86 339 0.0 1.0 0.00 0.83 0.00 80 999.1
20260902034404 86 287 0.0 2.0 0.00 1.03 0.00 80 999.1
20260902033904 86 16 0.0 0.0 0.00 1.09 0.00 79 999.2
20260902032904 87 248 1.0 3.0 0.00 1.15 0.00 78 999.1
20260902032404 87 283 0.0 2.0 0.00 1.16 0.00 78 999.0
20260902031903 87 281 0.0 1.0 0.00 1.16 0.00 79 999.1
20260902031404 86 293 0.0 0.0 0.00 1.16 0.00 81 999.2
20260902030904 85 306 0.0 2.0 0.00 1.16 0.00 82 999.2
20260902030404 84 347 0.0 1.0 0.00 1.16 0.00 82 999.2
20260902025904 85 7 2.0 3.0 0.00 1.17 0.00 81 999.1
20260902024904 84 287 0.0 2.0 0.00 1.18 0.00 83 999.0
20260902024404 84 274 0.0 2.0 0.00 1.18 0.00 83 999.1
20260902022904 83 273 0.0 1.0 0.00 1.18 0.00 84 999.2
20260902022404 83 269 0.0 1.0 0.00 1.18 0.00 85 999.3
20260902021404 82 224 0.0 1.0 0.00 1.18 0.00 85 999.3
20260902020904 82 318 0.0 1.0 0.00 1.18 0.00 85 999.3
20260902020404 82 282 0.0 2.0 0.00 1.18 0.00 85 999.3
20260902015404 82 288 0.0 1.0 0.00 1.18 0.00 86 999.3
20260902014904 82 287 0.0 1.0 0.00 1.18 0.00 86 999.3
20260902014404 81 271 0.0 2.0 0.00 1.18 0.00 86 999.3
20260902013404 81 270 0.0 1.0 0.00 1.18 0.00 87 999.2
20260902012904 81 280 0.0 1.0 0.00 1.18 0.00 87 999.2
20260902012404 81 280 0.0 0.0 0.00 1.18 0.00 88 999.2
20260902011904 81 291 0.0 1.0 0.00 1.18 0.00 88 999.2
20260902011404 81 295 0.0 1.0 0.00 1.18 0.00 88 999.1
20260902010904 80 295 0.0 1.0 0.00 1.18 0.00 89 999.1
20260902010404 80 295 0.0 1.0 0.00 1.20 0.00 89 999.0
20260902005904 80 307 0.0 0.0 0.00 1.20 0.00 89 999.0
20260902005404 80 19 1.0 5.0 0.00 1.20 0.00 89 999.0
20260902004904 80 12 0.0 1.0 0.00 1.20 0.00 89 999.1
20260902003904 79 2 0.0 3.0 0.00 1.20 0.00 89 999.0
20260902003404 79 284 1.0 3.0 0.00 1.20 0.00 89 999.0
20260902002904 79 309 0.0 1.0 0.00 1.20 0.00 90 999.0
20260902002404 79 224 1.0 3.0 0.00 1.20 0.00 90 999.1
20260902001904 79 262 0.0 3.0 0.00 1.20 0.00 90 999.2
20260902001404 79 268 0.0 0.0 0.00 1.20 0.00 90 999.1
20260902000904 79 335 0.0 0.0 0.00 1.20 0.00 90 999.0
20260902000404 79 339 0.0 0.0 0.00 1.20 0.00 90 998.9
20260901235904 79 352 0.0 1.0 0.00 1.20 0.00 90 998.9
20260901235404 79 11 0.0 2.0 0.00 1.20 0.00 90 998.7
20260901234904 79 298 0.0 1.0 0.00 1.20 0.00 91 998.6
20260901234403 79 298 0.0 1.0 0.00 1.20 0.00 91 998.6
20260901233904 79 334 0.0 3.0 0.00 1.20 0.00 91 998.6
20260901233404 79 285 0.0 2.0 0.00 1.20 0.00 91 998.4
20260901232903 79 343 0.0 2.0 0.00 1.20 0.00 91 998.3
20260901231904 79 264 1.0 3.0 0.00 1.20 0.00 91 998.3
20260901231404 79 211 2.0 5.0 0.00 1.20 0.00 91 998.4
20260901230904 79 260 1.0 3.0 0.00 1.20 0.00 91 998.4
20260901230404 79 254 1.0 3.0 0.00 1.20 0.00 91 998.2
20260901225904 79 288 0.0 0.0 0.00 1.20 0.00 91 998.1
20260901225404 79 293 0.0 0.0 0.00 1.20 0.00 92 998.1
20260901224404 79 288 0.0 0.0 0.00 1.20 0.00 92 997.9
20260901223904 79 311 0.0 2.0 0.00 1.20 0.00 91 997.9
20260901223404 79 355 0.0 2.0 0.00 1.20 0.00 91 997.9
20260901222404 79 262 0.0 0.0 0.00 1.20 0.00 92 998.0
20260901221904 79 260 0.0 1.0 0.00 1.20 0.00 92 997.9
20260901220904 79 259 0.0 0.0 0.00 1.20 0.00 92 997.9
20260901215904 79 262 1.0 3.0 0.00 1.20 0.00 92 997.7
20260901215404 79 302 0.0 0.0 0.00 1.20 0.00 92 997.8
20260901214904 79 337 0.0 0.0 0.00 1.20 0.00 92 997.7
20260901214405 79 337 0.0 1.0 0.00 1.20 0.00 92 997.7
20260901212904 79 338 0.0 1.0 0.00 1.20 0.00 92 997.8
20260901212403 79 340 0.0 5.0 0.00 1.20 0.00 92 997.7
20260901211904 79 309 0.0 1.0 0.00 1.20 0.00 92 997.8
20260901211404 79 318 0.0 1.0 0.00 1.20 0.00 92 997.7
20260901210904 79 317 0.0 0.0 0.00 1.20 0.00 93 997.7
20260901210403 79 318 0.0 0.0 0.00 1.20 0.00 93 997.7
20260901205904 79 248 0.0 1.0 0.00 1.20 0.00 93 997.7
20260901204904 79 254 0.0 2.0 0.00 1.20 0.00 92 997.7
20260901204404 79 283 0.0 1.0 0.00 1.20 0.00 92 997.7
20260901203904 79 271 0.0 0.0 0.00 1.20 0.00 92 997.7
20260901202904 79 290 0.0 2.0 0.00 1.20 0.00 92 997.4
20260901202404 79 272 0.0 0.0 0.00 1.20 0.00 92 997.5
20260901201904 80 271 0.0 2.0 0.00 1.20 0.00 92 997.5
20260901201404 79 277 0.0 1.0 0.00 1.20 0.00 92 997.6
20260901200904 79 277 0.0 1.0 0.00 1.20 0.00 92 997.6
20260901195903 79 335 0.0 2.0 0.00 1.20 0.00 92 997.7
20260901195403 79 42 0.0 3.0 0.00 1.20 0.00 92 997.5
20260901194404 79 273 0.0 1.0 0.00 1.20 0.00 92 997.6
20260901193903 79 273 0.0 3.0 0.00 1.20 0.00 92 997.7
20260901193404 79 266 0.0 0.0 0.00 1.20 0.00 92 997.7
20260901192904 79 266 0.0 1.0 0.00 1.20 0.00 92 997.7
20260901192404 79 265 0.0 1.0 0.00 1.20 0.00 93 997.7
20260901191904 79 262 0.0 1.0 0.00 1.20 0.00 92 997.8
20260901191404 79 261 0.0 0.0 0.00 1.20 0.00 93 997.8
20260901190903 79 259 0.0 1.0 0.00 1.20 0.00 93 997.8
20260901190403 79 256 0.0 1.0 0.00 1.20 0.00 93 997.8
20260901185904 79 347 0.0 2.0 0.00 1.20 0.00 93 997.9
20260901185404 79 350 0.0 0.0 0.00 1.20 0.00 93 997.8
20260901184404 79 102 0.0 2.0 0.00 1.20 0.00 93 997.7
20260901183904 79 237 0.0 2.0 0.00 1.20 0.00 93 997.8
20260901182904 79 57 0.0 2.0 0.00 1.20 0.00 93 997.7
20260901181904 79 264 0.0 1.0 0.00 1.20 0.00 94 997.8
20260901181404 79 262 0.0 1.0 0.00 1.20 0.00 94 997.8
20260901180904 79 261 0.0 2.0 0.00 1.20 0.00 94 997.8
20260901180404 79 256 0.0 2.0 0.00 1.20 0.00 94 997.7
20260901175904 79 250 0.0 2.0 0.00 1.20 0.00 94 997.7
20260901174904 79 357 1.0 2.0 0.00 1.20 0.00 94 997.8
20260901174404 80 266 0.0 2.0 0.00 1.20 0.00 94 997.9
20260901173904 80 287 0.0 1.0 0.00 1.20 0.00 94 997.9
20260901173404 80 310 0.0 2.0 0.00 1.20 0.00 94 997.8
20260901172904 80 9 0.0 3.0 0.00 1.20 0.00 94 997.9
20260901172404 80 281 0.0 0.0 0.00 1.20 0.00 94 997.9
20260901171903 80 281 0.0 1.0 0.00 1.20 0.00 94 997.9
20260901170904 80 328 0.0 3.0 0.00 1.20 0.00 94 998.1
20260901170403 80 45 1.0 3.0 0.00 1.20 0.00 94 998.1
20260901165904 80 308 0.0 1.0 0.00 1.20 0.00 94 998.2
20260901165403 80 326 0.0 0.0 0.00 1.20 0.00 94 998.1
20260901164904 80 359 0.0 1.0 0.00 1.20 0.00 95 998.2
20260901164404 80 287 0.0 1.0 0.00 1.20 0.00 95 998.2
20260901163904 80 289 0.0 1.0 0.01 1.20 0.00 95 998.3
20260901163404 80 278 0.0 1.0 0.01 1.20 0.00 95 998.3
20260901162904 80 283 0.0 0.0 0.01 1.20 0.00 95 998.3
20260901162404 80 283 0.0 1.0 0.01 1.20 0.00 96 998.3